Location: Barrio Las Umbrías
(40.4173°N, 4.8685°W)
Time: 13:05:56
(UTC+00:00)

SeaSat 1 - Pass Details

Date: 17 August 2022
Orbit: 744 x 746 km, 108.0° (Epoch: 28 September)

Event Time Altitude Azimuth Distance (km) Brightness Sun altitude
Exits shadow 20:43:23 16° 168° (SSE) 1,893 4.1 -16.1°
Maximum altitude 20:47:19 61° 246° (WSW) 843 2.8 -16.7°
Drops below altitude 10° 20:52:11 10° 327° (NNW) 2,265 6.0 -17.4°
Sets 20:54:30 0° 331° (NNW) 3,193 6.9 -17.8°
